Regional Weather Roundup
Issued by NWS

Home | Current Version | Previous Version | Graphics & Text | Print | Product List | Glossary Off
Versions: 1 2 3 4 5 6 7 8 9 10 11 12 13 14 15 16 17 18 19 20 21 22 23 24 25 26 27 28 29 30 31 32 33 34 35 36 37 38 39 40 41 42 43 44 45 46 47 48 49 50

687
ASUS43 KDTX 201501
RWRMI
MICHIGAN HOURLY REGIONAL WEATHER ROUNDUP
NATIONAL WEATHER SERVICE DETROIT/PONTIAC MI
1000 AM EST SAT JAN 20 2018

NOTE: "FAIR" INDICATES FEW OR NO CLOUDS BELOW 12,000 FEET WITH NO
SIGNIFICANT WEATHER AND/OR OBSTRUCTION TO VISIBILITY.

MIZ047>049-052>055-059>063-066>070-074>076-081>083-201600-
SOUTHEAST LOWER MICHIGAN

CITY           SKY/WX    TMP DP  RH WIND       PRES   REMARKS
ADRIAN         FAIR      32  25  75 W9        29.95R WCI  24
ALMA           FAIR      37  31  82 SW7       29.88R WCI  31
ANN ARBOR      FAIR      33  26  75 SW8       29.92R WCI  26
BAD AXE        FAIR      37  30  77 W10       29.86R WCI  29
CARO           FAIR      36  29  74 SW9       29.86R WCI  29
DETROIT CITY   FAIR      36  25  64 W10G18    29.92R WCI  28
DETROIT        PTSUNNY   36  26  67 SW15      29.94R WCI  27
FLINT          FAIR      35  26  69 SW9       29.89R WCI  28
GROSSE ILE     FAIR      34  26  71 W9        29.93R WCI  27
HILLSDALE      FAIR      34  27  75 SW12      29.91R WCI  25
HOWELL         FAIR      35  28  75 SW9       29.89R WCI  28

CITY           SKY/WX    TMP DP  RH WIND       PRES   REMARKS
JACKSON        FAIR      34  26  72 SW13      29.91R WCI  25
LAMBERTVILLE   FAIR      34  25  69 SW13G18   29.96R WCI  25
LANSING        FAIR      36  27  69 SW10      29.89R WCI  28
LAPEER         FAIR      36  27  69 W8        29.88R WCI  29
MONROE         FAIR      33  25  71 SW15      29.94R WCI  23
MT. CLEMENS    PTSUNNY   37  24  59 W13       29.89R WCI  29
PONTIAC        PTSUNNY   35  27  72 W8        29.88R WCI  29
PORT HOPE        N/A     38  29  70 SW9G17    29.82R WCI  31
PORT HURON     FAIR      34  25  69 SW5       29.90R WCI  30
TRI CITIES     FAIR      36  31  82 SW9       29.86R WCI  29
MIDLAND        FAIR      39  31  73 W8        29.86R WCI  33
TROY           FAIR      36  26  67 SW7       29.91R WCI  30
SAGINAW HB     FAIR      34  28  80 SW9       29.86R WCI  26
$$
MIZ043>046-050>051-056>058-064>065-071>073-077>080-201600-
SOUTHWEST LOWER MICHIGAN

CITY           SKY/WX    TMP DP  RH WIND       PRES   REMARKS
BATTLE CREEK   FAIR      33  26  75 SW13      29.92R WCI  24
BENTON HARBOR  FAIR      36  26  67 S8        29.92R WCI  30
BIG RAPIDS     FAIR      37  29  72 W10       29.84R WCI  30
COLDWATER      FAIR      33  27  80 SW10      29.93R WCI  25
FREMONT        FAIR      38  29  72 SW7       29.86R WCI  32
HOLLAND        FAIR      37  31  78 SW12      29.90R WCI  29
GRAND RAPIDS   PTSUNNY   37  30  75 SW12      29.89R WCI  29
IONIA          FAIR      37  29  75 SW7       29.88R WCI  31
KALAMAZOO      FAIR      35  27  72 SW9       29.93R WCI  28
LUDINGTON      FAIR      37  33  88 SW6       29.85R WCI  32
MARSHALL       FAIR      33  26  75 SW10      29.91R WCI  25
MOUNT PLEASANT FAIR      39  30  71 SW9       29.85R WCI  32
MUSKEGON       PTSUNNY   40  32  73 SW8       29.88R WCI  34
SOUTH HAVEN    FAIR      37  29  72 SW14G20   29.91S WCI  29
$$
MIZ016>042-201600-
NORTHERN LOWER MICHIGAN

CITY           SKY/WX    TMP DP  RH WIND       PRES   REMARKS
ALPENA         FAIR      36  30  79 SW7       29.79R WCI  30
BEAVER ISLAND  FAIR      37  31  78 W6        29.79R WCI  33
BELLAIRE       FAIR      28  28 100 CALM      29.82R FOG
CADILLAC       FAIR      32  31  95 SW6       29.81R WCI  27
CHARLEVOIX     FAIR      37  33  88 SW7       29.83R WCI  31
FRANKFORT      FAIR      32  32 100 CALM      29.83R FOG
GAYLORD        FAIR      31  29  92 SW6       29.78R WCI  25
GRAYLING       FAIR      33  28  84 SW6       29.81R WCI  27
HARBOR SPRINGS FAIR      36  32  85 SW5       29.80R WCI  32
HOUGHTON LAKE  FAIR      34  28  79 SW7       29.82R WCI  28
MANISTEE       FAIR      31  29  92 CALM      29.84R FOG
OSCODA         FAIR      33  27  79 SW9       29.82R WCI  25
PELLSTON       FAIR      38  30  73 W8        29.79R WCI  32
ROGERS CITY    FAIR      38  31  73 W7        29.79R WCI  33
TRAVERSE CITY  CLOUDY    36  31  82 SW3       29.81R
$$
MIZ007>008-015-201600-
EASTERN UPPER MICHIGAN

CITY           SKY/WX    TMP DP  RH WIND       PRES   REMARKS
KINROSS        CLOUDY    36  31  82 W12       29.75R WCI  28
MACKINAC ISLAN FAIR      33  29  86 W8        29.77R WCI  26
NEWBERRY       CLOUDY    35  33  94 W6        29.76R WCI  30
S. S. MARIE    CLOUDY    38  33  82 W12       29.75R WCI  30
MUNISING         N/A     32  29  88 E6        29.76S WCI  26
$$
MIZ004>006-011>014-085-201600-
CENTRAL UPPER MICHIGAN

CITY           SKY/WX    TMP DP  RH WIND       PRES   REMARKS
ESCANABA       FAIR      26  24  92 W5        29.81R WCI  20
MENOMINEE      FAIR      30  28  92 W3        29.85R
SAWYER-GWINN   SUNNY     28  25  86 SW3       29.77R
$$
MIZ001>003-009>011-084-201600-
WESTERN UPPER MICHIGAN

CITY           SKY/WX    TMP DP  RH WIND       PRES   REMARKS
IRON MOUNTAIN  FAIR      27  25  92 W3        29.79R
HOUGHTON       PTSUNNY   35  28  75 W15       29.74R WCI  25
COPPER HARBOR    N/A     39  30  70 NW13G21   29.73R WCI  31
IRONWOOD       FAIR      28  27  96 W9        29.82R WCI  19
$$

ABBREVIATIONS USED IN REMARKS
   TC - TEMPERATURE IN CELSIUS
  WCI - WIND CHILL INDEX
   HX - HEAT INDEX
  VSB - VISIBILITY





USA.gov is the U.S. government's official web portal to all federal, state and local government web resources and services.